Mojave, CA

8:32 AM PST on December 06, 2019 (GMT -0800)
Mojave

Weather History for KMHV - May, 2019

Change the Weather History Date:

Thursday, May 30, 2019

  Actual Average Record
Temperature  
Mean Temperature 72 °F -  
Max Temperature 84 °F 83 °F 101 °F (1984)
Min Temperature 59 °F 59 °F 46 °F (1985)
Cooling Degree Days 6    
Growing Degree Days 22 (Base 50)    
Moisture  
Dew Point 40 °F    
Average Humidity 37    
Maximum Humidity 63    
Minimum Humidity 11    
Precipitation  
Precipitation 0.00 in - - ()
Sea Level Pressure  
Sea Level Pressure 29.90 in    
Wind  
Wind Speed 7 mph (WSW)    
Max Wind Speed 24 mph    
Max Gust Speed 31 mph    
Visibility 10 miles    
Events      
Averages and records for this station are not official NWS values.
T = Trace of Precipitation, MM = Missing Value Source: NWS Daily Summary

Daily Weather History Graph

Daily Weather History Graph

Search for Another Location

Airport or City:

Astronomy

May. 30, 2019 Rise Set
Actual Time 5:40 AM PDT 8:00 PM PDT
Civil Twilight 5:11 AM PDT 8:29 PM PDT
Nautical Twilight 4:35 AM PDT 9:05 PM PDT
Astronomical Twilight 3:56 AM PDT 9:44 PM PDT
Moon 3:36 AM PDT (5/30) 4:23 PM PDT (5/30)
Length of Visible Light 15h 17m
Length of Day
14h 19m
Waning Crescent, 14% of the Moon is Illuminated
May 30
Waning Crescent
Jun 3
New
Jun 9
First Quarter
Jun 17
Full
Jun 25
Last Quarter

Hourly Weather History & Observations

Time (PDT) Temp. Dew Point Humidity Pressure Visibility Wind Dir Wind Speed Gust Speed Precip Events Conditions
12:00 AM 66.2 °F 48.2 °F 52% 29.91 in 10.0 mi West 5.8 mph - N/A   Clear
12:20 AM 66.2 °F 46.4 °F 49% 29.90 in 10.0 mi WNW 4.6 mph - N/A   Clear
12:40 AM 66.2 °F 46.4 °F 49% 29.90 in 10.0 mi NW 10.4 mph - N/A   Clear
1:00 AM 66.2 °F 46.4 °F 49% 29.90 in 10.0 mi NW 12.7 mph - N/A   Clear
1:20 AM 66.2 °F 46.4 °F 49% 29.89 in 10.0 mi WNW 4.6 mph - N/A   Clear
1:40 AM 64.4 °F 46.4 °F 52% 29.89 in 10.0 mi West 6.9 mph - N/A   Clear
2:00 AM 64.4 °F 46.4 °F 52% 29.89 in 10.0 mi West 5.8 mph - N/A   Clear
2:20 AM 62.6 °F 44.6 °F 52% 29.89 in 10.0 mi Calm Calm - N/A   Clear
2:40 AM 62.6 °F 46.4 °F 55% 29.89 in 10.0 mi West 4.6 mph - N/A   Clear
3:00 AM 60.8 °F 46.4 °F 59% 29.89 in 10.0 mi Calm Calm - N/A   Clear
3:20 AM 59.0 °F 46.4 °F 63% 29.89 in 10.0 mi NW 4.6 mph - N/A   Clear
3:40 AM 60.8 °F 46.4 °F 59% 29.89 in 10.0 mi SW 4.6 mph - N/A   Clear
4:00 AM 59.0 °F 46.4 °F 63% 29.89 in 10.0 mi WSW 4.6 mph - N/A   Clear
4:20 AM 59.0 °F 46.4 °F 63% 29.89 in 10.0 mi WSW 4.6 mph - N/A   Clear
4:40 AM 59.0 °F 46.4 °F 63% 29.89 in 10.0 mi Calm Calm - N/A   Clear
5:00 AM 59.0 °F 46.4 °F 63% 29.89 in 10.0 mi North 5.8 mph - N/A   Clear
5:20 AM 59.0 °F 44.6 °F 59% 29.90 in 10.0 mi Calm Calm - N/A   Clear
5:40 AM 59.0 °F 44.6 °F 59% 29.90 in 10.0 mi Calm Calm - N/A   Clear
6:00 AM 59.0 °F 46.4 °F 63% 29.91 in 10.0 mi Calm Calm - N/A   Clear
6:20 AM 59.0 °F 44.6 °F 59% 29.91 in 10.0 mi NW 4.6 mph - N/A   Clear
6:40 AM 62.6 °F 44.6 °F 52% 29.91 in 10.0 mi WNW 4.6 mph - N/A   Clear
7:00 AM 64.4 °F 44.6 °F 49% 29.92 in 10.0 mi Calm Calm - N/A   Clear
7:20 AM 68.0 °F 44.6 °F 43% 29.92 in 10.0 mi Calm Calm - N/A   Clear
7:40 AM 68.0 °F 46.4 °F 46% 29.92 in 10.0 mi South 3.5 mph - N/A   Clear
8:00 AM 68.0 °F 44.6 °F 43% 29.93 in 10.0 mi Calm Calm - N/A   Clear
8:20 AM 69.8 °F 46.4 °F 43% 29.93 in 10.0 mi Calm Calm - N/A   Clear
8:40 AM 69.8 °F 46.4 °F 43% 29.94 in 10.0 mi East 4.6 mph - N/A   Clear
9:00 AM 71.6 °F 46.4 °F 41% 29.94 in 10.0 mi Variable 4.6 mph - N/A   Clear
9:20 AM 71.6 °F 46.4 °F 41% 29.94 in 10.0 mi Calm Calm - N/A   Clear
9:40 AM 75.2 °F 44.6 °F 34% 29.94 in 10.0 mi Calm Calm - N/A   Clear
10:00 AM 73.4 °F 42.8 °F 33% 29.94 in 10.0 mi South 3.5 mph - N/A   Clear
10:20 AM 75.2 °F 42.8 °F 31% 29.94 in 10.0 mi Calm Calm - N/A   Clear
10:40 AM 75.2 °F 41.0 °F 29% 29.94 in 10.0 mi NNE 5.8 mph - N/A   Clear
11:00 AM 77.0 °F 35.6 °F 22% 29.94 in 10.0 mi Variable 5.8 mph - N/A   Clear
11:20 AM 77.0 °F 33.8 °F 21% 29.94 in 10.0 mi Variable 4.6 mph - N/A   Clear
11:40 AM 78.8 °F 30.2 °F 17% 29.93 in 10.0 mi Variable 6.9 mph 16.1 mph N/A   Clear
12:00 PM 78.8 °F 23.0 °F 13% 29.93 in 10.0 mi SE 5.8 mph 15.0 mph N/A   Clear
12:40 PM - - N/A% - - North - - N/A   Unknown
1:00 PM 80.6 °F 24.8 °F 13% 29.91 in 10.0 mi SSW 11.5 mph - N/A   Unknown
1:40 PM 82.4 °F 24.8 °F 12% 29.90 in 10.0 mi South 18.4 mph - N/A   Clear
2:00 PM 84.2 °F 23.0 °F 11% 29.90 in 10.0 mi South 13.8 mph 23.0 mph N/A   Clear
2:20 PM 82.4 °F 23.0 °F 11% 29.89 in 10.0 mi SW 12.7 mph 21.9 mph N/A   Clear
2:40 PM 84.2 °F 23.0 °F 11% 29.89 in 10.0 mi SSW 16.1 mph 24.2 mph N/A   Clear
3:20 PM 82.4 °F 23.0 °F 11% 29.88 in 10.0 mi SSW 11.5 mph 27.6 mph N/A   Clear
3:40 PM 82.4 °F 24.8 °F 12% 29.87 in 10.0 mi SSW 17.3 mph 24.2 mph N/A   Clear
4:00 PM 84.2 °F 32.0 °F 15% 29.87 in 10.0 mi SSW 24.2 mph 31.1 mph N/A   Clear
4:20 PM 82.4 °F 33.8 °F 17% 29.87 in 10.0 mi SSW 20.7 mph - N/A   Clear
4:40 PM 82.4 °F 33.8 °F 17% 29.86 in 10.0 mi South 18.4 mph 24.2 mph N/A   Clear
5:00 PM 82.4 °F 35.6 °F 19% 29.86 in 10.0 mi SSW 20.7 mph - N/A   Clear
5:20 PM 80.6 °F 37.4 °F 21% 29.86 in 10.0 mi SSW 18.4 mph - N/A   Clear
5:40 PM 80.6 °F 37.4 °F 21% 29.86 in 10.0 mi SSW 19.6 mph 25.3 mph N/A   Clear
6:20 PM 78.8 °F 37.4 °F 23% 29.86 in 10.0 mi SSW 23.0 mph 28.8 mph N/A   Unknown
6:40 PM 77.0 °F 37.4 °F 24% 29.86 in 10.0 mi SW 20.7 mph - N/A   Clear
7:00 PM 77.0 °F 37.4 °F 24% 29.87 in 10.0 mi SSW 21.9 mph - N/A   Clear
7:20 PM 75.2 °F 39.2 °F 27% 29.88 in 10.0 mi SW 17.3 mph - N/A   Clear
7:40 PM 73.4 °F 35.6 °F 25% 29.88 in 10.0 mi SW 16.1 mph - N/A   Clear
8:00 PM 73.4 °F 35.6 °F 25% 29.89 in 10.0 mi SW 10.4 mph 17.3 mph N/A   Clear
8:40 PM 71.6 °F 37.4 °F 29% 29.89 in 10.0 mi WSW 11.5 mph - N/A   Partly Cloudy
9:00 PM 69.8 °F 39.2 °F 33% 29.90 in 10.0 mi WSW 6.9 mph - N/A   Scattered Clouds
9:20 PM 69.8 °F 41.0 °F 35% 29.91 in 10.0 mi WSW 8.1 mph - N/A   Scattered Clouds
9:40 PM 69.8 °F 42.8 °F 38% 29.91 in 10.0 mi West 10.4 mph - N/A   Mostly Cloudy
10:00 PM 69.8 °F 44.6 °F 40% 29.91 in 10.0 mi West 13.8 mph - N/A   Scattered Clouds
10:20 PM 69.8 °F 44.6 °F 40% 29.92 in 10.0 mi West 11.5 mph - N/A   Partly Cloudy
11:00 PM 69.8 °F 46.4 °F 43% 29.91 in 10.0 mi WSW 11.5 mph - N/A   Scattered Clouds
11:20 PM 69.8 °F 46.4 °F 43% 29.90 in 10.0 mi West 17.3 mph 25.3 mph N/A   Partly Cloudy
11:40 PM 69.8 °F 48.2 °F 46% 29.91 in 10.0 mi WSW 10.4 mph 21.9 mph N/A   Clear